Check out our new BloomSky Weather System.

Active alerts

Houston, TX
  Details for Houston, TX Areal Flood Advisory


Thunder radar  blitzortung!


Rain radar more information rain snow radar


Visit our other weather sites:

Template documentation
and downloads

And another site



Weather Underground History page Text

Daily Summary for March 5, 2017 Units:  Metric    English   Both
« Previous Day
Next Day »
Daily Weekly Monthly Yearly Custom
  High: Low: Average:
Temperature: -17.8 °C 14.9 °C 17.9 °C
Dew Point: -17.8 °C 14 °C 17.2 °C
Humidity: Humidity % 89 % 95 %
Wind Speed: 0 km/h 0 km/h 5.6 km/h
Wind Gust: 0 km/h - -
Wind:- - ESE
Pressure: 0 hPa 1017.5 hPa -
Precipitation: 17.27 mm    
Historical Graphs
 
 
Tabular Data for March 5, 2017
Time Temperature Dew Point Pressure Wind Wind Speed Wind Gust Humidity Rainfall Rate (Hourly)
-17.8 °C -17.8 °C 0 hPa Calm     Humidity % 0 mm
00:03 15.3 °C 14 °C 1023.2 hPa ESE 6.4 km/h 14.5 km/h 92 % 0 mm
00:08 15.3 °C 14 °C 1023.2 hPa East 3.2 km/h 12.9 km/h 92 % 0 mm
00:13 15.3 °C 14 °C 1023.2 hPa ESE 6.4 km/h 14.5 km/h 92 % 0 mm
00:18 15.4 °C 14.1 °C 1022.9 hPa SE 8 km/h 14.5 km/h 92 % 0 mm
00:23 15.4 °C 14.1 °C 1022.9 hPa East 3.2 km/h 14.5 km/h 92 % 0 mm
00:28 15.4 °C 14.1 °C 1022.9 hPa East 3.2 km/h 11.3 km/h 92 % 0 mm
00:33 15.4 °C 14.1 °C 1022.9 hPa ENE 6.4 km/h 11.3 km/h 92 % 0 mm
00:38 15.4 °C 14.1 °C 1023.2 hPa SE 6.4 km/h 11.3 km/h 92 % 0 mm
00:43 15.4 °C 14.1 °C 1023.2 hPa East 4.8 km/h 11.3 km/h 92 % 0 mm
00:49 15.5 °C 14.2 °C 1023.2 hPa Calm   11.3 km/h 92 % 0 mm
00:54 15.5 °C 14.2 °C 1023.2 hPa Calm   11.3 km/h 92 % 0 mm
00:59 15.4 °C 14.1 °C 1023.2 hPa SE 1.6 km/h 9.7 km/h 92 % 0 mm
01:04 15.4 °C 14.1 °C 1023.6 hPa Calm   9.7 km/h 92 % 0 mm
01:09 15.4 °C 14.1 °C 1023.6 hPa ENE 1.6 km/h 4.8 km/h 92 % 0 mm
01:14 15.4 °C 14.1 °C 1023.6 hPa Calm   6.4 km/h 92 % 0 mm
01:19 15.4 °C 14.1 °C 1023.2 hPa ENE 4.8 km/h 6.4 km/h 92 % 0 mm
01:24 15.4 °C 14.1 °C 1023.6 hPa ESE 3.2 km/h 6.4 km/h 92 % 0 mm
01:29 15.4 °C 14.1 °C 1023.6 hPa ESE 1.6 km/h 6.4 km/h 92 % 0 mm
01:34 15.4 °C 14.1 °C 1023.6 hPa Calm   6.4 km/h 92 % 0 mm
01:39 15.4 °C 14.1 °C 1023.2 hPa Calm   4.8 km/h 92 % 0 mm
01:44 15.4 °C 14.1 °C 1023.2 hPa Calm   4.8 km/h 92 % 0 mm
01:49 15.4 °C 14.1 °C 1023.2 hPa NNE 1.6 km/h 4.8 km/h 92 % 0 mm
01:54 15.3 °C 14 °C 1023.2 hPa Calm   4.8 km/h 92 % 0 mm
01:59 15.3 °C 14 °C 1022.9 hPa NE 1.6 km/h 3.2 km/h 92 % 0 mm
02:04 15.2 °C 14.1 °C 1022.9 hPa ENE 3.2 km/h 4.8 km/h 93 % 0 mm
02:09 15.2 °C 14.1 °C 1022.6 hPa Calm   4.8 km/h 93 % 0 mm
02:14 15.2 °C 14.1 °C 1022.6 hPa ESE 1.6 km/h 4.8 km/h 93 % 0 mm
02:19 15.2 °C 14.1 °C 1022.6 hPa ENE 3.2 km/h 6.4 km/h 93 % 0 mm
02:24 15.1 °C 14 °C 1022.6 hPa Calm   6.4 km/h 93 % 0 mm
02:29 15.1 °C 14 °C 1022.2 hPa East 3.2 km/h 6.4 km/h 93 % 0 mm
02:34 15.1 °C 14 °C 1022.2 hPa ENE 1.6 km/h 6.4 km/h 93 % 0 mm
02:39 15.1 °C 14 °C 1022.2 hPa Calm   6.4 km/h 93 % 0 mm
02:44 15.1 °C 14.1 °C 1022.2 hPa NE 3.2 km/h 6.4 km/h 94 % 0 mm
02:49 15.1 °C 14.1 °C 1022.2 hPa Calm   9.7 km/h 94 % 0 mm
02:54 15.1 °C 14.1 °C 1022.2 hPa East 3.2 km/h 9.7 km/h 94 % 0 mm
02:59 15.1 °C 14.1 °C 1021.9 hPa East 4.8 km/h 9.7 km/h 94 % 0 mm
03:04 15.1 °C 14.1 °C 1021.9 hPa ENE 3.2 km/h 9.7 km/h 94 % 0 mm
03:09 15 °C 14 °C 1021.9 hPa East 6.4 km/h 9.7 km/h 94 % 0 mm
03:14 15 °C 14.2 °C 1021.9 hPa SE 1.6 km/h 9.7 km/h 95 % 0 mm
03:19 15 °C 14.2 °C 1021.9 hPa Calm   8 km/h 95 % 0 mm
03:24 15 °C 14.2 °C 1021.9 hPa ENE 1.6 km/h 8 km/h 95 % 0.25 mm
03:29 14.9 °C 14.1 °C 1021.9 hPa Calm   6.4 km/h 95 % 0.25 mm
03:34 15 °C 14.2 °C 1021.6 hPa NW 1.6 km/h 6.4 km/h 95 % 0.25 mm
03:39 15 °C 14.2 °C 1021.6 hPa Calm   6.4 km/h 95 % 0.25 mm
03:44 15 °C 14.4 °C 1021.6 hPa East 1.6 km/h 8 km/h 96 % 0.25 mm
03:49 15 °C 14.4 °C 1021.6 hPa ESE 3.2 km/h 8 km/h 96 % 0.25 mm
03:54 15 °C 14.4 °C 1021.6 hPa East 1.6 km/h 8 km/h 96 % 0.51 mm
04:00 15.1 °C 14.5 °C 1021.6 hPa Calm   8 km/h 96 % 0.51 mm
04:05 15.1 °C 14.5 °C 1021.6 hPa East 3.2 km/h 8 km/h 96 % 0.51 mm
04:10 15.1 °C 14.5 °C 1021.2 hPa SE 3.2 km/h 8 km/h 96 % 0.76 mm
04:15 15.1 °C 14.5 °C 1021.2 hPa East 1.6 km/h 8 km/h 96 % 1.02 mm
04:20 15.1 °C 14.5 °C 1021.2 hPa East 1.6 km/h 9.7 km/h 96 % 1.02 mm
04:25 15.2 °C 14.6 °C 1021.2 hPa NE 3.2 km/h 9.7 km/h 96 % 1.02 mm
04:30 15.2 °C 14.7 °C 1021.2 hPa ENE 3.2 km/h 8 km/h 97 % 1.02 mm
04:35 15.2 °C 14.7 °C 1020.9 hPa SE 4.8 km/h 8 km/h 97 % 1.02 mm
04:40 15.3 °C 14.8 °C 1021.2 hPa ESE 3.2 km/h 8 km/h 97 % 1.02 mm
04:45 15.3 °C 14.8 °C 1020.9 hPa East 3.2 km/h 8 km/h 97 % 0.76 mm
04:50 15.3 °C 14.8 °C 1021.2 hPa ESE 1.6 km/h 9.7 km/h 97 % 0.76 mm
04:55 15.4 °C 14.9 °C 1021.2 hPa ESE 1.6 km/h 9.7 km/h 97 % 0.76 mm
05:00 15.4 °C 14.9 °C 1021.2 hPa ENE 6.4 km/h 9.7 km/h 97 % 0.76 mm
05:05 15.4 °C 14.9 °C 1021.2 hPa East 1.6 km/h 9.7 km/h 97 % 0.51 mm
05:06 15.4 °C 14.9 °C 1021.2 hPa East 1.6 km/h 9.7 km/h 97 % 0.51 mm
05:11 15.4 °C 14.9 °C 1021.2 hPa East 1.6 km/h 9.7 km/h 97 % 0.25 mm
05:16 15.5 °C 15 °C 1021.2 hPa ESE 1.6 km/h 9.7 km/h 97 % 0.51 mm
05:21 15.5 °C 15 °C 1021.2 hPa East 1.6 km/h 8 km/h 97 % 0.25 mm
05:26 15.5 °C 15 °C 1021.2 hPa Calm   16.1 km/h 97 % 0.25 mm
05:31 15.6 °C 15.1 °C 1021.2 hPa East 4.8 km/h 16.1 km/h 97 % 0.25 mm
05:36 15.6 °C 15.1 °C 1020.9 hPa East 3.2 km/h 16.1 km/h 97 % 0.25 mm
05:41 15.6 °C 15.1 °C 1020.9 hPa SSE 3.2 km/h 16.1 km/h 97 % 0.25 mm
05:46 15.6 °C 15.1 °C 1020.9 hPa East 3.2 km/h 16.1 km/h 97 % 0.25 mm
05:51 15.6 °C 15.1 °C 1021.2 hPa East 4.8 km/h 16.1 km/h 97 % 0.25 mm
05:56 15.7 °C 15.2 °C 1020.9 hPa East 1.6 km/h 11.3 km/h 97 % 0.25 mm
06:01 15.7 °C 15.2 °C 1020.9 hPa East 3.2 km/h 11.3 km/h 97 % 0.25 mm
06:06 15.7 °C 15.2 °C 1020.9 hPa East 3.2 km/h 11.3 km/h 97 % 0.25 mm
06:11 15.7 °C 15.2 °C 1020.9 hPa ENE 1.6 km/h 14.5 km/h 97 % 0.25 mm
06:16 15.7 °C 15.4 °C 1020.9 hPa NW 1.6 km/h 14.5 km/h 98 % 0 mm
06:21 15.8 °C 15.5 °C 1020.9 hPa East 6.4 km/h 14.5 km/h 98 % 0 mm
06:26 15.8 °C 15.5 °C 1021.2 hPa ENE 3.2 km/h 11.3 km/h 98 % 0 mm
06:31 15.8 °C 15.5 °C 1021.2 hPa ENE 6.4 km/h 9.7 km/h 98 % 0 mm
06:36 15.8 °C 15.5 °C 1021.2 hPa SE 3.2 km/h 11.3 km/h 98 % 0 mm
06:41 15.8 °C 15.5 °C 1021.2 hPa ENE 8 km/h 11.3 km/h 98 % 0 mm
06:46 15.8 °C 15.5 °C 1021.2 hPa SSE 1.6 km/h 11.3 km/h 98 % 0 mm
06:51 15.8 °C 15.5 °C 1021.6 hPa East 3.2 km/h 11.3 km/h 98 % 0 mm
06:56 15.8 °C 15.5 °C 1021.6 hPa East 4.8 km/h 12.9 km/h 98 % 0 mm
07:01 15.9 °C 15.6 °C 1021.6 hPa ESE 4.8 km/h 12.9 km/h 98 % 0 mm
07:06 15.9 °C 15.6 °C 1021.6 hPa SE 4.8 km/h 12.9 km/h 98 % 0 mm
07:11 15.9 °C 15.6 °C 1021.6 hPa ENE 4.8 km/h 9.7 km/h 98 % 0 mm
07:16 15.9 °C 15.6 °C 1021.6 hPa SE 3.2 km/h 9.7 km/h 98 % 0 mm
07:21 16 °C 15.7 °C 1021.6 hPa ESE 3.2 km/h 9.7 km/h 98 % 0 mm
07:26 16 °C 15.7 °C 1021.6 hPa SE 3.2 km/h 9.7 km/h 98 % 0 mm
07:31 16.1 °C 15.8 °C 1021.6 hPa ESE 3.2 km/h 9.7 km/h 98 % 0 mm
07:36 16.1 °C 15.8 °C 1021.6 hPa SE 1.6 km/h 9.7 km/h 98 % 0 mm
07:41 16.1 °C 15.8 °C 1021.6 hPa ENE 3.2 km/h 14.5 km/h 98 % 0 mm
07:46 16.1 °C 15.8 °C 1021.6 hPa ESE 4.8 km/h 14.5 km/h 98 % 0 mm
07:51 16.2 °C 15.9 °C 1021.6 hPa SE 4.8 km/h 14.5 km/h 98 % 0 mm
07:56 16.2 °C 15.9 °C 1021.6 hPa Calm   9.7 km/h 98 % 0 mm
08:01 16.2 °C 15.9 °C 1021.9 hPa SE 3.2 km/h 11.3 km/h 98 % 0 mm
08:06 16.2 °C 15.9 °C 1021.9 hPa ESE 1.6 km/h 12.9 km/h 98 % 0 mm
08:11 16.3 °C 16 °C 1021.9 hPa ESE 3.2 km/h 12.9 km/h 98 % 0.25 mm
08:16 16.3 °C 16 °C 1021.9 hPa East 3.2 km/h 12.9 km/h 98 % 0.25 mm
08:21 16.3 °C 16 °C 1021.9 hPa East 3.2 km/h 12.9 km/h 98 % 0.25 mm
08:26 16.3 °C 16 °C 1021.9 hPa Calm   12.9 km/h 98 % 0.25 mm
08:31 16.3 °C 16 °C 1021.9 hPa ESE 6.4 km/h 11.3 km/h 98 % 0.51 mm
08:36 16.3 °C 16 °C 1021.9 hPa ESE 6.4 km/h 11.3 km/h 98 % 0.51 mm
08:41 16.4 °C 16.1 °C 1021.6 hPa ENE 4.8 km/h 11.3 km/h 98 % 0.76 mm
08:46 16.4 °C 16.1 °C 1021.2 hPa ESE 6.4 km/h 11.3 km/h 98 % 0.76 mm
08:49 16.4 °C 16.1 °C 1021.6 hPa ENE 8 km/h 11.3 km/h 98 % 0.76 mm
08:54 16.5 °C 16.2 °C 1021.6 hPa ESE 1.6 km/h 12.9 km/h 98 % 1.02 mm
09:00 16.6 °C 16.3 °C 1021.2 hPa ESE 9.7 km/h 12.9 km/h 98 % 1.27 mm
09:04 16.7 °C 16.4 °C 1021.2 hPa ESE 6.4 km/h 12.9 km/h 98 % 1.52 mm
09:10 16.8 °C 16.5 °C 1021.2 hPa ESE 4.8 km/h 17.7 km/h 98 % 1.52 mm
09:15 17 °C 16.7 °C 1021.2 hPa ESE 6.4 km/h 17.7 km/h 98 % 1.78 mm
09:20 17.1 °C 16.8 °C 1021.2 hPa ESE 4.8 km/h 17.7 km/h 98 % 2.29 mm
09:25 17.2 °C 16.9 °C 1021.2 hPa East 6.4 km/h 17.7 km/h 98 % 2.54 mm
09:30 17.3 °C 17 °C 1021.2 hPa SW 1.6 km/h 17.7 km/h 98 % 2.79 mm
09:35 17.4 °C 17.1 °C 1021.2 hPa East 3.2 km/h 17.7 km/h 98 % 2.54 mm
09:40 17.4 °C 17.1 °C 1021.2 hPa East 4.8 km/h 17.7 km/h 98 % 2.29 mm
09:45 17.5 °C 17.2 °C 1021.6 hPa SSE 1.6 km/h 17.7 km/h 98 % 2.54 mm
09:50 17.6 °C 17.3 °C 1021.6 hPa ESE 6.4 km/h 16.1 km/h 98 % 2.29 mm
09:55 17.6 °C 17.3 °C 1021.6 hPa SW 1.6 km/h 16.1 km/h 98 % 2.03 mm
10:00 17.7 °C 17.4 °C 1021.9 hPa SE 3.2 km/h 16.1 km/h 98 % 1.78 mm
10:05 17.7 °C 17.4 °C 1021.9 hPa ESE 1.6 km/h 14.5 km/h 98 % 1.78 mm
10:10 17.7 °C 17.4 °C 1021.9 hPa SSE 4.8 km/h 12.9 km/h 98 % 1.52 mm
10:15 17.8 °C 17.5 °C 1021.9 hPa SE 1.6 km/h 12.9 km/h 98 % 1.02 mm
10:20 17.8 °C 17.5 °C 1021.9 hPa ESE 3.2 km/h 11.3 km/h 98 % 0.76 mm
10:25 17.9 °C 17.6 °C 1021.9 hPa Calm   11.3 km/h 98 % 0.51 mm
10:30 17.9 °C 17.6 °C 1021.9 hPa SE 1.6 km/h 12.9 km/h 98 % 0.51 mm
10:35 18.1 °C 17.8 °C 1021.9 hPa ESE 3.2 km/h 14.5 km/h 98 % 0.51 mm
10:40 18.2 °C 17.9 °C 1021.9 hPa ESE 6.4 km/h 14.5 km/h 98 % 0.51 mm
10:45 18.3 °C 18 °C 1021.9 hPa ESE 4.8 km/h 14.5 km/h 98 % 0.25 mm
10:50 18.4 °C 18.1 °C 1021.6 hPa ESE 4.8 km/h 14.5 km/h 98 % 0.51 mm
10:55 18.6 °C 18.3 °C 1021.6 hPa ESE 4.8 km/h 14.5 km/h 98 % 0.51 mm
11:00 18.8 °C 18.5 °C 1021.6 hPa ESE 4.8 km/h 14.5 km/h 98 % 0.51 mm
11:05 18.9 °C 18.6 °C 1021.6 hPa SSE 4.8 km/h 14.5 km/h 98 % 0.25 mm
11:10 19.2 °C 18.9 °C 1021.2 hPa South 1.6 km/h 12.9 km/h 98 % 0.25 mm
11:15 19.3 °C 18.8 °C 1021.6 hPa SE 4.8 km/h 14.5 km/h 97 % 0.25 mm
11:20 19.4 °C 18.9 °C 1021.6 hPa ESE 6.4 km/h 14.5 km/h 97 % 0.25 mm
11:25 19.4 °C 18.9 °C 1021.6 hPa ESE 11.3 km/h 17.7 km/h 97 % 0.25 mm
11:30 19.6 °C 19.1 °C 1021.6 hPa ESE 17.7 km/h 19.3 km/h 97 % 0.25 mm
11:35 19.7 °C 19 °C 1021.2 hPa ESE 4.8 km/h 19.3 km/h 96 % 0.25 mm
11:40 19.9 °C 19.2 °C 1021.2 hPa ESE 20.9 km/h 20.9 km/h 96 % 0.25 mm
11:45 19.9 °C 19.1 °C 1021.2 hPa SE 12.9 km/h 20.9 km/h 95 % 0.25 mm
11:50 20.1 °C 19.3 °C 1021.2 hPa SE 8 km/h 20.9 km/h 95 % 0 mm
11:55 20.2 °C 19.2 °C 1021.2 hPa SE 12.9 km/h 20.9 km/h 94 % 0 mm
12:00 20.2 °C 19 °C 1021.2 hPa SE 9.7 km/h 20.9 km/h 93 % 0 mm
12:05 20.2 °C 19 °C 1021.2 hPa SE 16.1 km/h 22.5 km/h 93 % 0 mm
12:10 20.3 °C 19.1 °C 1020.9 hPa East 11.3 km/h 22.5 km/h 93 % 0 mm
12:15 20.4 °C 19.1 °C 1020.9 hPa ESE 12.9 km/h 22.5 km/h 92 % 0 mm
12:20 20.6 °C 19.4 °C 1020.9 hPa SW 9.7 km/h 22.5 km/h 93 % 0 mm
12:25 20.7 °C 19.4 °C 1020.5 hPa SSE 9.7 km/h 22.5 km/h 92 % 0 mm
12:30 20.8 °C 19.3 °C 1020.5 hPa ESE 24.1 km/h 24.1 km/h 91 % 0 mm
12:35 20.8 °C 19.3 °C 1020.2 hPa South 8 km/h 27.4 km/h 91 % 0 mm
12:40 20.8 °C 19.1 °C 1020.2 hPa East 4.8 km/h 27.4 km/h 90 % 0 mm
12:45 20.8 °C 19.3 °C 1020.2 hPa SSE 4.8 km/h 27.4 km/h 91 % 0 mm
12:50 20.8 °C 19.1 °C 1020.2 hPa SSE 20.9 km/h 24.1 km/h 90 % 0 mm
12:55 20.7 °C 19 °C 1020.2 hPa SSE 16.1 km/h 24.1 km/h 90 % 0 mm
13:00 20.8 °C 19.1 °C 1019.9 hPa South 12.9 km/h 24.1 km/h 90 % 0 mm
13:05 20.8 °C 19.1 °C 1019.9 hPa SE 9.7 km/h 20.9 km/h 90 % 0 mm
13:10 20.8 °C 18.9 °C 1019.9 hPa ESE 12.9 km/h 24.1 km/h 89 % 0 mm
13:15 20.8 °C 18.9 °C 1019.9 hPa ESE 12.9 km/h 24.1 km/h 89 % 0 mm
13:20 20.9 °C 19 °C 1019.9 hPa SE 14.5 km/h 24.1 km/h 89 % 0 mm
13:25 20.8 °C 18.9 °C 1019.5 hPa SSE 11.3 km/h 25.7 km/h 89 % 0 mm
13:30 20.7 °C 18.8 °C 1019.5 hPa ENE 6.4 km/h 25.7 km/h 89 % 0 mm
13:35 20.6 °C 18.7 °C 1019.5 hPa East 8 km/h 25.7 km/h 89 % 0 mm
13:40 20.5 °C 18.8 °C 1019.5 hPa ESE 14.5 km/h 27.4 km/h 90 % 0 mm
13:45 20.4 °C 18.9 °C 1019.2 hPa ESE 14.5 km/h 27.4 km/h 91 % 0.25 mm
13:50 20.2 °C 18.9 °C 1019.2 hPa SSE 4.8 km/h 27.4 km/h 92 % 0.25 mm
13:55 20.1 °C 18.9 °C 1019.2 hPa ESE 9.7 km/h 22.5 km/h 93 % 0.25 mm
14:00 19.9 °C 18.9 °C 1018.8 hPa East 6.4 km/h 19.3 km/h 94 % 0.51 mm
14:05 19.9 °C 18.9 °C 1018.8 hPa East 9.7 km/h 19.3 km/h 94 % 0.51 mm
14:11 19.8 °C 19 °C 1018.8 hPa South 12.9 km/h 19.3 km/h 95 % 0.51 mm
14:15 19.9 °C 19.1 °C 1018.5 hPa SE 6.4 km/h 19.3 km/h 95 % 0.51 mm
14:21 19.9 °C 19.1 °C 1018.5 hPa SE 8 km/h 17.7 km/h 95 % 0.51 mm
14:26 19.9 °C 19.1 °C 1018.5 hPa SE 4.8 km/h 17.7 km/h 95 % 0.51 mm
14:31 20 °C 19.2 °C 1018.5 hPa South 9.7 km/h 19.3 km/h 95 % 0.51 mm
14:36 20 °C 19.2 °C 1018.5 hPa SE 3.2 km/h 19.3 km/h 95 % 0.51 mm
14:41 20.1 °C 19.3 °C 1018.5 hPa SE 6.4 km/h 19.3 km/h 95 % 0.51 mm
14:46 20.1 °C 19.3 °C 1018.5 hPa SE 12.9 km/h 19.3 km/h 95 % 0.25 mm
14:51 20.2 °C 19.4 °C 1018.5 hPa SE 9.7 km/h 19.3 km/h 95 % 0.25 mm
14:56 20.1 °C 19.1 °C 1018.5 hPa East 8 km/h 19.3 km/h 94 % 0.25 mm
15:01 20.1 °C 19.3 °C 1018.5 hPa ESE 9.7 km/h 19.3 km/h 95 % 0 mm
15:06 20.1 °C 19.1 °C 1018.2 hPa ESE 14.5 km/h 19.3 km/h 94 % 0 mm
15:11 20.1 °C 19.1 °C 1018.2 hPa South 4.8 km/h 19.3 km/h 94 % 0 mm
15:16 20.1 °C 19.1 °C 1018.2 hPa ENE 11.3 km/h 24.1 km/h 94 % 0 mm
15:21 20.2 °C 19.2 °C 1018.2 hPa ESE 4.8 km/h 24.1 km/h 94 % 0 mm
15:26 20.2 °C 19.2 °C 1017.8 hPa SSE 4.8 km/h 24.1 km/h 94 % 0 mm
15:31 20.2 °C 19.2 °C 1017.8 hPa ESE 4.8 km/h 17.7 km/h 94 % 0 mm
15:36 20.2 °C 19.2 °C 1017.8 hPa SE 8 km/h 17.7 km/h 94 % 0 mm
15:41 20.2 °C 19.2 °C 1017.8 hPa SE 11.3 km/h 17.7 km/h 94 % 0 mm
15:46 20.2 °C 19.2 °C 1017.8 hPa SE 12.9 km/h 19.3 km/h 94 % 0 mm
15:51 20.2 °C 19.2 °C 1017.8 hPa SE 9.7 km/h 19.3 km/h 94 % 0 mm
15:56 20.1 °C 19.1 °C 1017.8 hPa East 6.4 km/h 19.3 km/h 94 % 0 mm
16:01 20.1 °C 19.1 °C 1017.8 hPa SE 9.7 km/h 19.3 km/h 94 % 0 mm
16:06 20 °C 19 °C 1017.8 hPa ESE 4.8 km/h 19.3 km/h 94 % 0 mm
16:11 19.9 °C 19.1 °C 1017.8 hPa SE 1.6 km/h 19.3 km/h 95 % 0.25 mm
16:16 19.9 °C 19.1 °C 1017.8 hPa SE 8 km/h 19.3 km/h 95 % 0.51 mm
16:21 19.8 °C 19 °C 1017.8 hPa ESE 8 km/h 16.1 km/h 95 % 0.51 mm
16:26 19.7 °C 19 °C 1017.8 hPa SSE 1.6 km/h 11.3 km/h 96 % 0.51 mm
16:31 19.7 °C 19 °C 1017.8 hPa SSE 4.8 km/h 11.3 km/h 96 % 0.51 mm
16:37 19.6 °C 18.9 °C 1017.8 hPa SE 8 km/h 12.9 km/h 96 % 0.51 mm
16:42 19.6 °C 18.9 °C 1017.5 hPa ESE 6.4 km/h 14.5 km/h 96 % 0.76 mm
16:47 19.6 °C 19.1 °C 1017.5 hPa East 4.8 km/h 14.5 km/h 97 % 1.02 mm
16:52 19.6 °C 19.1 °C 1017.8 hPa ESE 8 km/h 17.7 km/h 97 % 1.02 mm
16:57 19.6 °C 19.1 °C 1017.5 hPa ESE 1.6 km/h 17.7 km/h 97 % 1.02 mm
17:02 19.6 °C 19.1 °C 1017.5 hPa ESE 1.6 km/h 17.7 km/h 97 % 1.02 mm
17:07 19.6 °C 19.1 °C 1017.5 hPa ESE 6.4 km/h 16.1 km/h 97 % 1.02 mm
17:12 19.7 °C 19.2 °C 1017.5 hPa SE 4.8 km/h 12.9 km/h 97 % 0.76 mm
17:17 19.7 °C 19.2 °C 1017.5 hPa SE 4.8 km/h 11.3 km/h 97 % 0.51 mm
17:22 19.6 °C 19.1 °C 1017.5 hPa ESE 3.2 km/h 11.3 km/h 97 % 0.51 mm
17:27 19.6 °C 19.1 °C 1017.5 hPa SE 4.8 km/h 11.3 km/h 97 % 0.51 mm
17:32 19.6 °C 19.1 °C 1017.5 hPa ESE 4.8 km/h 11.3 km/h 97 % 0.51 mm
17:37 19.6 °C 19.1 °C 1017.5 hPa SE 6.4 km/h 11.3 km/h 97 % 0.51 mm
17:42 19.5 °C 19 °C 1017.5 hPa SE 6.4 km/h 11.3 km/h 97 % 0.25 mm
17:47 19.5 °C 19 °C 1017.5 hPa SSE 4.8 km/h 12.9 km/h 97 % 0 mm
17:52 19.5 °C 19 °C 1017.5 hPa ENE 4.8 km/h 14.5 km/h 97 % 0 mm
17:57 19.5 °C 19 °C 1017.5 hPa ESE 3.2 km/h 16.1 km/h 97 % 0 mm
18:02 19.5 °C 19 °C 1017.5 hPa SE 8 km/h 16.1 km/h 97 % 0 mm
18:07 19.5 °C 19 °C 1017.5 hPa ESE 3.2 km/h 17.7 km/h 97 % 0 mm
18:12 19.5 °C 19 °C 1017.5 hPa ESE 6.4 km/h 20.9 km/h 97 % 0 mm
18:17 19.5 °C 19 °C 1017.5 hPa SE 3.2 km/h 20.9 km/h 97 % 0 mm
18:22 19.5 °C 19 °C 1017.5 hPa ESE 11.3 km/h 20.9 km/h 97 % 0 mm
18:27 19.5 °C 19 °C 1017.5 hPa ESE 3.2 km/h 17.7 km/h 97 % 0 mm
18:32 19.4 °C 18.9 °C 1017.5 hPa SE 1.6 km/h 19.3 km/h 97 % 0 mm
18:37 19.4 °C 18.9 °C 1017.5 hPa SE 3.2 km/h 19.3 km/h 97 % 0 mm
18:42 19.4 °C 18.9 °C 1017.5 hPa ESE 11.3 km/h 19.3 km/h 97 % 0.25 mm
18:47 19.4 °C 18.9 °C 1017.8 hPa ESE 6.4 km/h 14.5 km/h 97 % 1.02 mm
18:52 19.3 °C 18.8 °C 1017.5 hPa SE 1.6 km/h 16.1 km/h 97 % 1.52 mm
18:57 19.3 °C 18.8 °C 1017.8 hPa SE 6.4 km/h 16.1 km/h 97 % 1.78 mm
19:02 19.3 °C 18.8 °C 1017.8 hPa ESE 4.8 km/h 16.1 km/h 97 % 1.78 mm
19:07 19.3 °C 18.8 °C 1017.5 hPa SE 4.8 km/h 12.9 km/h 97 % 2.03 mm
19:12 19.2 °C 18.7 °C 1017.8 hPa SE 3.2 km/h 12.9 km/h 97 % 2.03 mm
19:17 19.2 °C 18.7 °C 1017.5 hPa SE 6.4 km/h 9.7 km/h 97 % 2.29 mm
19:22 19.2 °C 18.9 °C 1017.5 hPa ESE 4.8 km/h 16.1 km/h 98 % 2.29 mm
19:27 19.2 °C 18.9 °C 1017.5 hPa ENE 9.7 km/h 16.1 km/h 98 % 2.29 mm
19:32 19.2 °C 18.9 °C 1017.8 hPa SSE 6.4 km/h 16.1 km/h 98 % 2.79 mm
19:37 19.2 °C 18.9 °C 1017.8 hPa SSE 4.8 km/h 11.3 km/h 98 % 3.56 mm
19:42 19.2 °C 18.9 °C 1017.8 hPa ESE 8 km/h 9.7 km/h 98 % 3.05 mm
19:47 19.2 °C 18.9 °C 1017.8 hPa ESE 9.7 km/h 12.9 km/h 98 % 2.54 mm
19:52 19.2 °C 18.9 °C 1017.8 hPa SE 9.7 km/h 12.9 km/h 98 % 2.79 mm
19:57 19.2 °C 18.9 °C 1017.8 hPa East 9.7 km/h 12.9 km/h 98 % 2.79 mm
20:02 19.2 °C 18.9 °C 1017.8 hPa ESE 6.4 km/h 12.9 km/h 98 % 3.05 mm
20:07 19.2 °C 18.9 °C 1017.8 hPa SE 6.4 km/h 12.9 km/h 98 % 2.79 mm
20:12 19.2 °C 18.9 °C 1017.8 hPa ESE 3.2 km/h 11.3 km/h 98 % 4.32 mm
20:17 19.1 °C 18.8 °C 1017.8 hPa SSE 3.2 km/h 11.3 km/h 98 % 5.84 mm
20:22 19.1 °C 18.8 °C 1017.8 hPa ESE 6.4 km/h 11.3 km/h 98 % 7.62 mm
20:27 19.2 °C 18.9 °C 1017.8 hPa SE 6.4 km/h 16.1 km/h 98 % 7.87 mm
20:32 19.2 °C 18.9 °C 1017.8 hPa SE 8 km/h 16.1 km/h 98 % 7.62 mm
20:37 19.3 °C 19 °C 1017.8 hPa South 8 km/h 22.5 km/h 98 % 6.86 mm
20:42 19.4 °C 19.1 °C 1017.8 hPa ESE 4.8 km/h 22.5 km/h 98 % 6.86 mm
20:47 19.4 °C 19.1 °C 1017.8 hPa ESE 4.8 km/h 22.5 km/h 98 % 6.86 mm
20:53 19.4 °C 19.1 °C 1017.8 hPa SSW 3.2 km/h 20.9 km/h 98 % 6.1 mm
20:58 19.4 °C 18.9 °C 1018.2 hPa SSE 3.2 km/h 14.5 km/h 97 % 5.84 mm
21:03 19.3 °C 18.8 °C 1018.2 hPa SE 6.4 km/h 9.7 km/h 97 % 5.59 mm
21:08 19.3 °C 19 °C 1017.8 hPa SE 9.7 km/h 12.9 km/h 98 % 5.59 mm
21:13 19.4 °C 19.1 °C 1018.2 hPa SE 8 km/h 12.9 km/h 98 % 3.81 mm
21:18 19.4 °C 18.9 °C 1018.2 hPa SE 11.3 km/h 16.1 km/h 97 % 2.03 mm
21:23 19.5 °C 19 °C 1018.2 hPa ESE 9.7 km/h 16.1 km/h 97 % 0.51 mm
21:28 19.5 °C 19 °C 1018.2 hPa SE 8 km/h 16.1 km/h 97 % 0.25 mm
21:33 19.5 °C 19 °C 1018.2 hPa South 6.4 km/h 12.9 km/h 97 % 0 mm
21:38 19.6 °C 19.1 °C 1018.2 hPa SSE 8 km/h 14.5 km/h 97 % 0 mm
21:43 19.6 °C 19.1 °C 1018.2 hPa SSE 4.8 km/h 14.5 km/h 97 % 0 mm
21:48 19.6 °C 19.1 °C 1018.2 hPa South 6.4 km/h 16.1 km/h 97 % 0 mm
21:53 19.6 °C 19.1 °C 1018.2 hPa SSE 6.4 km/h 16.1 km/h 97 % 0 mm
21:58 19.7 °C 19.2 °C 1018.2 hPa South 11.3 km/h 16.1 km/h 97 % 0 mm
22:03 19.7 °C 19.2 °C 1018.2 hPa SSE 9.7 km/h 16.1 km/h 97 % 0 mm
22:08 19.7 °C 19.2 °C 1018.2 hPa SE 3.2 km/h 16.1 km/h 97 % 0 mm
22:13 19.8 °C 19.3 °C 1018.2 hPa South 8 km/h 16.1 km/h 97 % 0 mm
22:18 19.8 °C 19.3 °C 1018.2 hPa SE 11.3 km/h 16.1 km/h 97 % 0 mm
22:23 19.8 °C 19.3 °C 1018.2 hPa SSW 8 km/h 16.1 km/h 97 % 0 mm
22:28 19.8 °C 19.1 °C 1018.2 hPa SSE 6.4 km/h 16.1 km/h 96 % 0 mm
22:33 19.9 °C 19.2 °C 1018.2 hPa South 8 km/h 16.1 km/h 96 % 0 mm
22:38 19.9 °C 19.2 °C 1018.2 hPa SE 11.3 km/h 17.7 km/h 96 % 0 mm
22:43 20 °C 19.3 °C 1018.2 hPa East 11.3 km/h 19.3 km/h 96 % 0 mm
22:48 20.1 °C 19.4 °C 1018.2 hPa SW 9.7 km/h 19.3 km/h 96 % 0 mm
22:53 20.1 °C 19.4 °C 1018.2 hPa South 11.3 km/h 19.3 km/h 96 % 0 mm
22:58 20.2 °C 19.5 °C 1018.2 hPa South 8 km/h 19.3 km/h 96 % 0 mm
23:03 20.2 °C 19.5 °C 1018.2 hPa SSE 8 km/h 19.3 km/h 96 % 0 mm
23:08 20.2 °C 19.5 °C 1018.2 hPa SE 9.7 km/h 19.3 km/h 96 % 0 mm
23:13 20.2 °C 19.5 °C 1018.2 hPa SE 9.7 km/h 20.9 km/h 96 % 0 mm
23:18 20.3 °C 19.6 °C 1018.2 hPa South 14.5 km/h 20.9 km/h 96 % 0 mm
23:23 20.3 °C 19.6 °C 1017.8 hPa SSE 9.7 km/h 20.9 km/h 96 % 0 mm
23:28 20.3 °C 19.6 °C 1017.8 hPa SE 9.7 km/h 20.9 km/h 96 % 0 mm
23:33 20.4 °C 19.7 °C 1017.8 hPa SE 6.4 km/h 20.9 km/h 96 % 0 mm
23:38 20.4 °C 19.7 °C 1017.8 hPa SE 3.2 km/h 24.1 km/h 96 % 0 mm
23:43 20.4 °C 19.7 °C 1017.8 hPa SE 12.9 km/h 24.1 km/h 96 % 0 mm
23:48 20.5 °C 19.8 °C 1017.8 hPa SE 6.4 km/h 24.1 km/h 96 % 0 mm
23:53 20.5 °C 19.7 °C 1017.8 hPa South 8 km/h 19.3 km/h 95 % 0 mm
23:59 20.5 °C 19.7 °C 1017.8 hPa SSE 8 km/h 19.3 km/h 95 % 0 mm
Spring, Texas: Villages of Bridgestone
Compliments of Weather Underground - 2.75 mb

Script developed by  Jim McMurry - jmcmurry@mwt.net Adapted for the template by  Wim van der Kuil - Leuven-Template.eu

You find our weather info also at:

UK Metoffice

WeatherCloud

Weather Underground

Mid-South Weather Network

AWEKAS

Citizen Weather Observer Program (CWOP)

HAMweather, WeatherForYou, PWS Weather

Equipment we use:

Weather-station
Davis Vantage Vue

Weather-program
Meteohub

Weather-server
Debian 7.9 x86 (Guest)

Provider
DreamHost

Davis Vantage Vue

Meteohub

Debian 7.9 x86 (Guest)

DreamHost